Location: Campolattaro
(41.2833°N, 14.7333°E)
Time: 05:33:05
(UTC+00:00)

Cosmos 2173 Rocket - Pass Details

Date: 19 May 2025
Orbit: 944 x 999 km, 83.0° (Epoch: 14 June)

Event Time Altitude Azimuth Distance (km) Brightness Sun altitude
Rises 23:12:15 0° 354° (N) 3,723 8.2 -28.6°
Reaches altitude 10° 23:14:49 10° 357° (N) 2,766 7.3 -28.6°
Maximum altitude 23:21:10 71° 81° (E) 1,038 4.0 -28.5°
Enters shadow 23:21:46 67° 120° (ESE) 1,066 4.0 -28.5°
